TimeEDT,TemperatureF,Dew PointF,Humidity,Sea Level PressureIn,VisibilityMPH,Wind Direction,Wind SpeedMPH,Gust SpeedMPH,PrecipitationIn,Events,Conditions,WindDirDegrees,DateUTC
12:15 AM,59.0,58.1,97,30.17,7.0,Calm,Calm,-,N/A,Rain,Light Rain,0,2012-10-04 04:15:00
12:35 AM,59.0,58.1,97,30.17,10.0,Calm,Calm,-,N/A,,Overcast,0,2012-10-04 04:35:00
12:55 AM,59.0,58.1,97,30.17,7.0,Calm,Calm,-,N/A,,Overcast,0,2012-10-04 04:55:00
1:15 AM,59.0,58.1,97,30.17,7.0,Calm,Calm,-,N/A,,Overcast,0,2012-10-04 05:15:00
1:35 AM,59.0,58.1,97,30.17,5.0,Calm,Calm,-,N/A,,Overcast,0,2012-10-04 05:35:00
1:55 AM,59.0,58.1,97,30.17,7.0,Calm,Calm,-,N/A,,Overcast,0,2012-10-04 05:55:00
2:15 AM,59.0,58.1,97,30.16,10.0,Calm,Calm,-,N/A,,Overcast,0,2012-10-04 06:15:00
2:35 AM,58.8,57.9,97,30.15,7.0,Calm,Calm,-,N/A,,Overcast,0,2012-10-04 06:35:00
3:15 AM,58.6,57.7,97,30.16,7.0,Calm,Calm,-,N/A,,Overcast,0,2012-10-04 07:15:00
3:35 AM,58.8,57.9,97,30.16,10.0,Calm,Calm,-,N/A,,Overcast,0,2012-10-04 07:35:00
3:55 AM,58.8,57.9,97,30.17,10.0,Calm,Calm,-,N/A,,Overcast,0,2012-10-04 07:55:00
4:15 AM,58.8,57.9,97,30.17,4.0,Calm,Calm,-,N/A,,Overcast,0,2012-10-04 08:15:00
4:35 AM,58.6,57.7,97,30.16,4.0,Calm,Calm,-,N/A,,Overcast,0,2012-10-04 08:35:00
4:55 AM,58.5,57.6,97,30.17,4.0,Calm,Calm,-,N/A,,Overcast,0,2012-10-04 08:55:00
5:15 AM,58.6,57.7,97,30.16,7.0,Calm,Calm,-,N/A,,Overcast,0,2012-10-04 09:15:00
5:35 AM,58.6,57.7,97,30.16,7.0,Calm,Calm,-,N/A,,Overcast,0,2012-10-04 09:35:00
5:55 AM,58.5,57.6,97,30.17,5.0,Calm,Calm,-,N/A,,Overcast,0,2012-10-04 09:55:00
6:15 AM,58.5,57.6,97,30.17,7.0,Calm,Calm,-,N/A,,Overcast,0,2012-10-04 10:15:00
6:35 AM,58.5,57.7,97,30.17,5.0,Calm,Calm,-,N/A,,Overcast,0,2012-10-04 10:35:00
6:55 AM,58.5,57.7,97,30.17,7.0,Calm,Calm,-,N/A,,Overcast,0,2012-10-04 10:55:00
7:15 AM,58.5,57.7,97,30.17,3.0,Calm,Calm,-,N/A,,Overcast,0,2012-10-04 11:15:00
7:35 AM,58.6,57.9,97,30.17,2.0,Calm,Calm,-,N/A,,Overcast,0,2012-10-04 11:35:00
7:55 AM,58.6,58.1,98,30.17,2.5,Calm,Calm,-,N/A,,Overcast,0,2012-10-04 11:55:00
8:15 AM,58.8,58.1,97,30.17,3.0,Calm,Calm,-,N/A,,Overcast,0,2012-10-04 12:15:00
8:35 AM,58.6,58.1,98,30.16,7.0,Calm,Calm,-,N/A,Rain,Light Rain,0,2012-10-04 12:35:00
8:55 AM,59.0,58.1,97,30.17,2.5,Calm,Calm,-,N/A,,Overcast,0,2012-10-04 12:55:00
9:15 AM,59.0,58.1,97,30.17,3.0,Calm,Calm,-,N/A,,Overcast,0,2012-10-04 13:15:00
9:35 AM,59.4,58.6,97,30.16,7.0,Calm,Calm,-,N/A,,Overcast,0,2012-10-04 13:35:00
9:55 AM,59.9,58.8,96,30.17,4.0,Calm,Calm,-,N/A,,Overcast,0,2012-10-04 13:55:00
10:15 AM,59.9,58.6,96,30.16,3.0,Calm,Calm,-,N/A,,Overcast,0,2012-10-04 14:15:00
10:35 AM,59.9,58.8,96,30.16,3.0,Calm,Calm,-,N/A,,Overcast,0,2012-10-04 14:35:00
10:55 AM,60.3,58.8,95,30.16,3.0,Calm,Calm,-,N/A,,Overcast,0,2012-10-04 14:55:00
11:15 AM,60.3,59.0,96,30.16,2.5,Calm,Calm,-,N/A,,Overcast,0,2012-10-04 15:15:00
11:35 AM,60.3,59.0,96,30.16,5.0,Calm,Calm,-,N/A,,Overcast,0,2012-10-04 15:35:00
12:15 PM,60.8,58.6,93,30.14,10.0,ENE,5.8,-,N/A,,Overcast,70,2012-10-04 16:15:00
12:35 PM,61.0,58.6,92,30.14,10.0,East,3.5,-,N/A,,Overcast,100,2012-10-04 16:35:00
12:55 PM,60.8,58.1,91,30.13,7.0,East,3.5,-,0.02,Rain,Rain,90,2012-10-04 16:55:00
1:15 PM,60.4,58.5,93,30.12,10.0,East,3.5,-,0.01,Rain,Light Rain,80,2012-10-04 17:15:00
1:35 PM,60.4,58.6,94,30.12,7.0,Calm,Calm,-,0.02,Rain,Rain,0,2012-10-04 17:35:00
1:55 PM,60.4,59.0,95,30.11,4.0,Calm,Calm,-,0.07,Rain,Light Rain,0,2012-10-04 17:55:00
2:15 PM,60.4,59.0,95,30.10,7.0,ENE,3.5,-,N/A,Rain,Light Rain,70,2012-10-04 18:15:00
2:35 PM,61.0,59.4,94,30.09,10.0,ENE,3.5,-,0.01,Rain,Light Rain,70,2012-10-04 18:35:00
2:55 PM,61.2,59.2,93,30.08,10.0,East,3.5,-,0.01,,Light Drizzle,100,2012-10-04 18:55:00
3:15 PM,61.2,59.2,93,30.05,10.0,East,3.5,-,N/A,,Overcast,80,2012-10-04 19:15:00
3:35 PM,61.3,59.0,92,30.08,10.0,Calm,Calm,-,N/A,Rain,Light Rain,0,2012-10-04 19:35:00
3:55 PM,61.0,59.0,93,30.08,10.0,Calm,Calm,-,N/A,,Overcast,0,2012-10-04 19:55:00
4:15 PM,61.0,59.4,94,30.08,10.0,Calm,Calm,-,N/A,,Light Drizzle,0,2012-10-04 20:15:00
4:35 PM,61.2,59.4,94,30.07,10.0,Calm,Calm,-,N/A,,Overcast,0,2012-10-04 20:35:00
4:55 PM,61.2,59.2,93,30.07,10.0,Calm,Calm,-,N/A,,Overcast,0,2012-10-04 20:55:00
5:15 PM,61.2,59.4,94,30.07,10.0,Calm,Calm,-,N/A,,Overcast,0,2012-10-04 21:15:00
5:35 PM,61.2,59.4,94,30.05,10.0,Calm,Calm,-,N/A,,Overcast,0,2012-10-04 21:35:00
5:55 PM,61.0,59.4,94,30.06,10.0,Calm,Calm,-,N/A,,Overcast,0,2012-10-04 21:55:00
6:15 PM,61.0,59.4,94,30.06,10.0,Calm,Calm,-,N/A,,Overcast,0,2012-10-04 22:15:00
6:35 PM,60.8,59.5,96,30.06,10.0,Calm,Calm,-,N/A,,Overcast,0,2012-10-04 22:35:00
6:55 PM,60.6,59.4,96,30.04,10.0,Calm,Calm,-,N/A,,Overcast,0,2012-10-04 22:55:00
7:15 PM,60.4,59.2,96,30.05,10.0,Calm,Calm,-,N/A,,Overcast,0,2012-10-04 23:15:00
7:35 PM,60.3,59.2,96,30.03,10.0,Calm,Calm,-,N/A,,Overcast,0,2012-10-04 23:35:00
7:55 PM,60.3,59.0,96,30.04,10.0,Calm,Calm,-,N/A,,Overcast,0,2012-10-04 23:55:00
8:15 PM,60.3,59.2,96,30.05,10.0,Calm,Calm,-,N/A,,Overcast,0,2012-10-05 00:15:00
8:55 PM,59.9,59.0,97,30.04,7.0,Calm,Calm,-,N/A,,Overcast,0,2012-10-05 00:55:00
9:15 PM,59.9,59.0,97,30.04,7.0,Calm,Calm,-,N/A,,Overcast,0,2012-10-05 01:15:00
9:35 PM,59.9,59.0,97,30.04,2.5,Calm,Calm,-,N/A,,Overcast,0,2012-10-05 01:35:00
10:15 PM,59.9,59.0,97,30.04,10.0,Calm,Calm,-,N/A,,Overcast,0,2012-10-05 02:15:00
10:35 PM,59.9,59.0,97,30.04,7.0,Calm,Calm,-,N/A,,Overcast,0,2012-10-05 02:35:00
11:15 PM,59.4,58.6,97,30.04,3.0,Calm,Calm,-,N/A,,Overcast,0,2012-10-05 03:15:00
11:35 PM,59.5,59.0,98,30.03,5.0,Calm,Calm,-,N/A,,Overcast,0,2012-10-05 03:35:00
11:55 PM,59.5,59.0,98,30.03,3.0,Calm,Calm,-,N/A,,Overcast,0,2012-10-05 03:55:00